SCP
2 3 3 3 3 4 4 4 3 3 3 3 2 1 1 1 1 1 1 1 1 1 1 1 1 1 1 0 0 0 0 0 0 0 0 0 0 0 0 0 0 0 0
2 3 3 3 3 4 5 4 3 3 3 3 2 2 1 1 1 1 1 1 1 1 1 1 1 1 1 0 0 0 0 0 0 0 0 0 0 0 0 0 0 0 0
2 3 3 3 3 4 4 4 3 3 3 3 3 2 1 1 1 1 1 1 1 1 1 1 1 1 1 1 0 0 0 0 0 0 0 0 0 0 0 0 0 0 0
2 3 3 3 3 4 4 4 3 3 3 3 3 2 2 1 1 1 1 1 1 1 1 1 1 1 1 1 1 0 0 0 0 0 0 0 0 0 0 0 0 0 0
2 3 3 3 3 3 4 4 3 3 3 3 3 2 2 1 1 1 2 2 1 1 1 1 1 1 1 1 1 0 0 0 0 0 0 0 0 0 0 0 0 0 0
3 3 3 3 3 3 4 4 4 3 3 3 3 2 2 1 1 1 2 2 1 1 1 1 1 1 1 1 1 0 0 0 0 0 0 0 0 0 0 0 0 0 0
3 3 3 3 4 4 4 4 4 3 3 3 3 2 2 1 1 1 2 2 1 1 1 1 1 1 1 1 0 0 0 0 0 0 0 0 0 0 1 1 1 1 1
4 4 4 4 4 4 4 4 4 3 3 3 3 2 2 2 2 2 2 2 1 1 1 1 1 1 1 1 0 0 0 0 0 0 0 0 0 1 1 1 1 1 1
3 4 4 4 5 4 4 4 3 3 2 2 2 2 2 2 2 2 2 2 1 1 1 1 1 1 1 1 0 0 0 0 0 0 0 0 0 0 1 1 1 1 0
2 3 3 4 4 4 3 3 3 2 2 2 2 2 1 1 1 2 2 2 1 1 1 1 1 1 1 0 0 0 0 0 0 0 0 0 0 0 1 1 1 1 0
2 2 2 3 3 3 3 3 3 2 2 1 1 1 1 1 1 1 1 1 1 1 1 1 1 1 1 0 0 0 0 0 0 0 0 0 0 1 1 1 1 0 0
2 2 2 2 3 3 3 3 2 2 2 1 1 1 1 0 0 0 1 1 0 1 1 1 1 1 0 0 0 0 0 0 0 0 0 0 1 1 1 1 1 0 0
2 2 2 2 2 3 3 3 3 2 2 1 1 1 0 0 0 0 0 0 0 0 0 0 0 0 0 0 0 0 0 0 0 0 0 0 1 1 1 1 0 0 0
2 2 2 2 2 2 2 2 2 2 1 1 1 1 0 0 0 0 0 0 0 0 0 0 0 0 0 0 0 0 0 0 0 0 0 0 0 0 1 1 1 0 0
3 2 2 2 3 2 2 2 2 2 1 1 1 1 1 0 0 0 0 0 0 0 0 0 0 0 0 0 0 0 0 0 0 0 0 0 0 0 0 1 1 1 1
2 2 2 2 2 2 2 1 1 1 1 1 1 1 1 1 0 0 0 0 0 0 0 0 0 0 0 0 0 0 0 0 0 0 0 0 0 0 0 1 1 1 1
1 1 1 1 1 1 1 1 0 0 1 1 1 1 1 1 0 0 0 0 0 0 0 0 0 0 0 0 0 0 0 0 0 0 0 0 0 0 0 0 1 1 1
1 1 1 1 1 1 1 0 0 0 0 0 0 0 0 0 0 0 0 0 0 0 0 0 0 0 0 0 0 0 0 0 0 0 0 0 0 0 0 0 0 1 1
1 1 1 1 1 0 0 0 0 0 0 0 0 0 0 0 0 0 0 0 0 0 0 0 0 0 0 0 0 0 0 0 0 0 0 0 0 0 0 0 0 0 0
0 0 1 1 1 0 0 0 0 0 0 0 0 0 0 0 0 0 0 0 0 0 0 0 0 0 0 0 0 0 0 0 0 0 0 0 0 0 0 0 0 0 0
0 0 0 1 1 0 0 0 0 0 0 1 1 1 1 1 1 1 0 0 0 1 1 0 0 0 0 0 0 0 0 0 0 0 0 0 0 0 0 0 0 0 0
0 0 0 0 0 0 0 0 0 0 1 1 1 1 1 1 1 1 1 1 1 1 1 1 1 0 0 0 0 0 0 0 0 0 0 0 0 0 0 0 0 0 0
0 0 0 0 0 0 0 0 0 0 0 1 1 1 1 1 1 1 1 1 1 1 1 1 1 0 0 0 0 0 0 0 0 0 0 0 0 0 0 0 0 0 0
0 0 0 0 0 0 0 0 0 0 0 0 0 0 1 1 1 1 1 1 1 1 1 1 0 0 0 0 0 0 0 0 0 0 0 0 0 0 0 0 0 0 0
0 0 0 0 0 0 0 0 0 0 0 0 0 0 0 0 0 1 1 1 1 1 1 0 0 0 0 0 0 0 0 0 0 0 0 0 0 0 0 0 0 0 0
0 0 0 0 0 0 0 0 0 0 0 0 0 0 0 0 0 0 0 0 0 0 0 0 0 0 0 0 0 0 0 0 0 0 0 0 0 0 0 0 0 0 0
Wind_Speed
2 2 5 6 7 8 9 9 8 8 8 9 9 10 10 10 10 10 10 10 10 9 10 10 10 10 11 11 11 11 11 10 10 10 10 10 10 11 11 10 9 6 10
3 3 6 6 7 8 9 8 8 8 8 8 8 9 9 9 10 10 10 9 9 9 9 9 9 10 10 10 10 10 10 10 10 10 10 9 9 10 10 9 8 6 9
4 3 5 7 7 8 8 8 8 8 7 7 8 8 8 9 9 9 9 9 8 8 9 9 9 9 9 9 9 9 9 10 10 10 9 5 5 9 9 9 8 8 8
4 3 4 7 8 8 8 8 8 7 7 7 7 7 8 8 8 9 8 8 8 8 8 8 8 8 8 8 8 8 9 9 9 9 5 4 4 7 8 8 8 8 7
4 3 4 8 8 9 8 8 8 7 7 7 7 7 7 7 8 8 8 7 7 7 7 7 7 8 7 8 8 8 8 8 9 7 4 4 3 5 7 7 7 7 7
4 3 4 8 8 8 8 7 7 7 7 7 7 7 7 7 7 7 7 7 7 6 6 7 7 7 7 7 7 7 8 8 7 4 3 3 2 4 6 6 5 6 6
4 3 4 8 9 8 7 7 7 6 6 6 7 6 6 6 6 6 6 6 6 6 6 6 6 7 7 6 7 7 7 7 5 3 3 2 2 3 4 4 4 5 5
4 3 3 7 8 8 7 7 6 6 6 6 6 6 6 6 5 5 6 6 5 6 6 6 6 6 6 6 6 6 6 6 4 3 2 2 2 3 3 3 3 4 4
3 3 2 3 5 6 7 7 6 6 6 6 6 6 6 6 6 5 5 5 5 5 5 5 5 6 6 6 5 5 6 6 4 2 2 2 2 2 2 2 3 3 4
3 3 2 3 3 3 3 6 7 6 6 6 6 6 6 5 5 5 4 5 5 5 4 4 4 5 5 5 5 5 5 5 2 2 1 2 2 1 1 2 3 3 3
2 2 2 3 3 3 3 4 5 5 6 6 6 8 7 4 3 3 4 5 4 4 4 4 4 4 4 4 4 4 4 2 1 1 1 2 2 2 1 1 2 2 2
4 2 2 3 3 3 3 3 2 3 3 4 3 4 3 3 3 3 4 5 5 4 4 4 4 4 3 2 2 3 1 1 1 1 2 3 2 2 1 1 1 1 2
5 4 3 2 3 3 2 3 2 2 2 3 3 4 3 3 2 3 2 3 3 4 3 3 3 2 2 1 1 1 1 1 1 1 2 3 3 2 1 1 1 2 2
4 4 3 3 3 3 3 3 3 2 2 2 2 3 3 2 2 2 1 1 2 1 1 1 1 2 2 2 1 1 1 0 1 1 2 3 3 3 2 2 2 3 3
5 4 4 4 4 3 3 3 3 2 2 2 2 2 3 2 2 1 1 1 1 1 1 1 1 1 1 1 1 1 1 1 1 1 2 4 4 4 4 4 4 4 4
6 5 4 4 4 4 3 3 3 2 2 2 2 2 3 2 2 2 1 1 1 1 1 1 1 1 0 0 1 1 1 1 1 1 1 3 5 5 5 5 5 5 5
6 5 5 4 4 4 4 4 3 2 2 2 2 2 2 2 2 2 1 1 0 0 1 1 1 1 1 1 1 1 1 1 1 1 1 1 2 5 6 6 6 6 6
5 5 5 4 4 4 4 4 3 3 3 2 2 2 2 2 3 2 2 1 1 1 1 1 1 1 1 1 1 1 1 1 1 1 1 1 1 2 4 5 6 6 6
6 6 6 5 5 4 3 3 3 3 3 2 2 1 2 2 2 2 2 1 1 1 1 1 1 1 0 1 1 1 1 1 1 1 1 1 1 1 2 4 6 6 6
5 6 6 5 5 4 3 3 2 2 2 2 2 2 2 2 2 2 1 1 1 1 1 1 1 1 1 0 1 2 2 2 1 1 1 1 2 2 2 2 2 4 6
4 5 6 6 5 5 3 3 3 3 2 2 2 2 3 2 2 2 1 1 1 2 2 2 1 1 1 1 1 2 2 1 1 1 1 1 1 2 2 2 1 1 3
6 6 6 6 6 6 5 4 3 3 2 2 2 2 2 3 3 2 2 2 1 1 1 2 2 1 0 1 1 1 2 2 1 1 1 1 1 1 2 2 1 1 2
6 7 6 7 6 6 5 3 3 2 2 1 1 2 2 2 3 3 3 3 2 2 2 2 2 3 1 0 1 2 1 2 3 2 1 1 1 1 2 2 2 2 2
7 6 6 6 6 5 6 5 5 4 4 4 3 2 2 2 2 2 3 3 3 2 2 2 2 2 2 1 0 0 1 1 1 3 2 2 2 2 2 2 2 2 2
5 5 5 5 5 5 6 6 6 4 3 2 2 3 2 1 2 2 2 2 2 2 3 2 2 2 2 2 2 1 0 0 0 1 3 3 3 2 2 2 2 2 2
4 4 4 5 5 5 6 5 6 5 4 4 3 3 2 1 1 2 2 2 3 2 3 3 2 2 2 2 2 2 2 2 1 1 2 3 4 3 3 2 2 2 2
Wind_Direction
210 210 187 155 139 138 133 128 125 123 121 117 115 112 108 106 105 102 99 94 92 88 85 84 85 83 82 81 80 77 75 72 71 73 71 70 72 72 69 66 60 57 69
170 184 171 150 136 134 133 131 126 126 124 124 120 116 112 110 109 108 103 98 94 92 89 87 85 84 83 81 80 78 75 73 71 69 67 65 69 71 68 67 64 62 67
138 159 161 145 134 132 132 132 130 128 127 130 126 122 119 116 114 111 107 103 98 94 92 90 88 86 85 84 82 79 77 74 73 69 62 45 54 70 68 67 65 65 66
138 144 150 142 134 132 129 131 133 132 131 131 131 128 124 119 118 114 111 106 100 96 95 92 89 88 88 87 86 82 78 76 73 67 49 33 31 70 69 68 67 64 62
126 128 146 139 136 132 128 126 131 135 135 134 134 131 127 124 122 116 112 106 102 100 98 94 90 88 90 88 87 84 80 75 70 59 43 28 19 67 70 68 64 62 61
120 122 140 138 135 131 129 126 128 137 141 139 134 131 128 127 123 118 113 109 104 101 98 96 93 91 91 91 89 87 82 76 63 50 39 20 6 66 72 70 66 62 59
126 126 142 137 133 130 130 129 128 130 133 138 135 132 128 120 119 119 113 109 104 104 102 100 98 93 91 90 90 86 80 74 66 49 30 3 358 63 74 70 67 62 59
131 127 133 141 134 131 131 129 128 125 126 128 129 125 123 119 115 116 114 109 107 108 107 105 101 99 96 90 86 80 75 72 61 42 16 352 5 62 78 75 71 66 62
119 114 113 135 135 133 130 127 124 120 115 118 120 116 112 109 109 105 104 107 112 113 109 106 104 103 99 91 83 75 70 68 63 31 3 334 354 46 70 79 72 65 59
106 107 108 112 116 118 126 123 119 116 113 110 108 100 95 94 97 95 91 94 102 106 107 104 104 103 96 88 81 74 67 62 48 17 348 320 349 8 56 83 71 56 48
122 118 122 114 112 112 117 117 114 112 104 99 98 91 82 66 63 71 78 81 91 100 102 100 100 93 84 80 76 72 60 52 41 359 323 328 335 334 5 66 67 42 30
173 172 144 134 126 120 118 106 92 90 92 89 85 86 82 77 63 54 58 68 73 74 76 84 82 75 65 55 54 56 51 49 37 335 311 325 323 321 345 31 38 17 3
180 176 166 152 141 132 120 111 101 96 92 93 95 92 88 78 63 52 45 41 46 54 53 56 59 56 61 60 51 47 52 49 14 328 309 324 327 326 315 328 354 351 346
176 182 174 163 148 142 131 121 122 118 112 109 108 108 105 97 81 67 54 41 49 58 68 63 69 63 60 52 51 38 23 22 343 326 316 337 333 329 326 329 334 326 320
183 184 180 171 164 154 140 140 135 138 136 133 122 121 119 119 117 98 80 68 56 66 87 92 90 74 61 43 32 26 357 345 338 341 335 348 345 332 324 317 310 308 303
191 190 183 177 173 162 159 154 151 148 142 134 133 139 130 130 132 122 106 95 73 77 116 118 135 119 64 41 17 5 343 340 341 337 334 338 342 333 322 314 309 306 305
192 189 188 181 169 167 167 163 153 151 140 143 149 147 143 142 138 132 134 132 107 83 85 95 88 95 77 34 4 354 6 356 330 329 328 326 329 335 323 314 311 308 304
186 186 191 181 172 175 168 162 157 153 146 146 146 146 145 144 141 136 139 151 125 116 118 117 104 78 51 22 344 336 346 356 342 324 329 333 333 335 331 328 322 316 310
190 187 188 183 177 179 166 156 152 151 151 145 139 146 151 150 147 139 147 153 130 122 126 135 104 112 96 353 329 339 342 330 315 329 346 347 336 338 338 337 338 331 324
192 188 187 181 177 166 149 131 124 130 144 141 154 162 151 148 147 135 134 134 126 127 125 130 133 95 119 134 359 349 328 311 327 332 319 333 337 338 340 341 333 330 334
188 185 186 179 176 163 160 165 164 176 176 168 169 165 163 159 154 143 142 136 140 159 169 157 138 110 63 52 48 346 325 316 313 308 306 327 333 324 331 330 321 318 320
191 191 189 186 180 177 178 176 165 155 162 164 160 165 169 166 164 162 162 157 166 166 154 150 140 135 79 63 103 31 332 328 322 308 309 301 307 318 314 311 306 310 311
194 194 194 190 182 177 167 141 119 103 93 122 164 182 186 178 177 172 169 166 177 181 186 186 173 163 172 220 100 140 164 253 309 311 296 302 310 296 290 294 295 295 301
201 191 188 183 178 172 161 161 163 169 180 189 179 177 179 182 180 180 172 174 178 178 184 201 191 182 161 173 175 57 181 173 220 306 311 307 295 287 288 301 297 291 295
190 179 178 171 172 171 170 172 172 176 173 148 149 162 171 176 178 179 173 173 185 187 185 183 190 188 178 175 172 175 173 28 179 228 288 307 309 283 275 273 274 280 284
174 167 164 165 172 171 172 173 176 175 166 160 170 177 182 177 184 191 180 180 192 195 193 192 185 191 202 190 187 178 175 180 204 214 260 289 296 295 288 269 260 264 270